| time (UTC) | temp F | wind direction | speed MPH | gust MPH | rain 1hr in | rain 24hr in | rain mn in | humidity % | barometer mb |
| 20260902224506 | 91 | 144 | 0.0 | 8.0 | 0.00 | 0.00 | 0.00 | 72 | 1010.3 |
| 20260902223007 | 92 | 171 | 2.0 | 9.0 | 0.00 | 0.00 | 0.00 | 71 | 1010.2 |
| 20260902221510 | 93 | 160 | 2.0 | 11.0 | 0.00 | 0.00 | 0.00 | 69 | 1010.2 |
| 20260902220003 | 92 | 145 | 1.0 | 4.0 | 0.00 | 0.00 | 0.00 | 71 | 1010.2 |
| 20260902214509 | 92 | 156 | 1.0 | 3.0 | 0.00 | 0.00 | 0.00 | 72 | 1010.2 |
| 20260902213002 | 91 | 125 | 0.0 | 5.0 | 0.00 | 0.00 | 0.00 | 73 | 1010.3 |
| 20260902211501 | 91 | 132 | 1.0 | 5.0 | 0.00 | 0.00 | 0.00 | 73 | 1010.5 |
| 20260902210100 | 91 | 137 | 1.0 | 4.0 | 0.00 | 0.00 | 0.00 | 72 | 1010.5 |
| 20260902204600 | 93 | 192 | 1.0 | 3.0 | 0.00 | 0.00 | 0.00 | 71 | 1010.5 |
| 20260902203058 | 95 | 160 | 0.0 | 6.0 | 0.00 | 0.00 | 0.00 | 67 | 1010.7 |
| 20260902201558 | 95 | 144 | 1.0 | 9.0 | 0.00 | 0.00 | 0.00 | 64 | 1011.0 |
| 20260902200048 | 95 | 144 | 2.0 | 5.0 | 0.00 | 0.00 | 0.00 | 66 | 1011.1 |
| 20260902194551 | 94 | 146 | 3.0 | 8.0 | 0.00 | 0.01 | 0.00 | 67 | 1011.3 |
| 20260902193038 | 94 | 231 | 2.0 | 10.0 | 0.00 | 0.01 | 0.00 | 68 | 1011.5 |
| 20260902191535 | 94 | 200 | 2.0 | 8.0 | 0.00 | 0.01 | 0.00 | 66 | 1011.6 |
| 20260902190031 | 95 | 249 | 4.0 | 10.0 | 0.00 | 0.01 | 0.00 | 66 | 1011.7 |
| 20260902184529 | 95 | 207 | 1.0 | 12.0 | 0.00 | 0.01 | 0.00 | 66 | 1011.9 |
| 20260902183022 | 94 | 113 | 3.0 | 13.0 | 0.00 | 0.01 | 0.00 | 67 | 1012.0 |
| 20260902181518 | 93 | 273 | 1.0 | 11.0 | 0.00 | 0.01 | 0.00 | 69 | 1012.3 |
| 20260902180013 | 92 | 281 | 2.0 | 12.0 | 0.00 | 0.02 | 0.00 | 71 | 1012.6 |
| 20260902174512 | 92 | 292 | 3.0 | 11.0 | 0.00 | 0.02 | 0.00 | 72 | 1012.8 |
| 20260902173008 | 91 | 231 | 3.0 | 13.0 | 0.00 | 0.02 | 0.00 | 74 | 1012.9 |
| 20260902171604 | 91 | 229 | 3.0 | 13.0 | 0.00 | 0.02 | 0.00 | 75 | 1013.1 |
| 20260902170058 | 90 | 265 | 7.0 | 15.0 | 0.00 | 0.02 | 0.00 | 76 | 1013.4 |
| 20260902164554 | 89 | 296 | 3.0 | 12.0 | 0.00 | 0.02 | 0.00 | 78 | 1013.6 |
| 20260902163050 | 89 | 292 | 3.0 | 13.0 | 0.00 | 0.02 | 0.00 | 80 | 1013.7 |
| 20260902161553 | 88 | 308 | 3.0 | 12.0 | 0.00 | 0.02 | 0.00 | 80 | 1013.7 |
| 20260902154545 | 87 | 253 | 6.0 | 14.0 | 0.00 | 0.02 | 0.00 | 84 | 1013.6 |
| 20260902153044 | 86 | 265 | 3.0 | 12.0 | 0.00 | 0.02 | 0.00 | 85 | 1013.5 |
| 20260902151540 | 85 | 250 | 2.0 | 7.0 | 0.00 | 0.02 | 0.00 | 86 | 1013.3 |
| 20260902150032 | 84 | 233 | 2.0 | 9.0 | 0.00 | 0.02 | 0.00 | 86 | 1013.3 |
| 20260902144527 | 82 | 254 | 2.0 | 4.0 | 0.00 | 0.02 | 0.00 | 86 | 1013.3 |
| 20260902143023 | 82 | 244 | 1.0 | 4.0 | 0.00 | 0.02 | 0.00 | 87 | 1013.2 |
| 20260902141519 | 81 | 198 | 0.0 | 1.0 | 0.00 | 0.02 | 0.00 | 86 | 1013.3 |
| 20260902140017 | 80 | 182 | 0.0 | 2.0 | 0.00 | 0.02 | 0.00 | 86 | 1013.2 |
| 20260902134524 | 80 | 211 | 0.0 | 1.0 | 0.00 | 0.02 | 0.00 | 86 | 1013.2 |
| 20260902133011 | 80 | 240 | 0.0 | 2.0 | 0.00 | 0.02 | 0.00 | 86 | 1013.2 |
| 20260902131507 | 80 | 178 | 0.0 | 2.0 | 0.00 | 0.02 | 0.00 | 85 | 1013.0 |
| 20260902130004 | 80 | 154 | 0.0 | 3.0 | 0.00 | 0.02 | 0.00 | 85 | 1012.8 |
| 20260902124502 | 79 | 222 | 0.0 | 2.0 | 0.00 | 0.02 | 0.00 | 85 | 1012.7 |
| 20260902123103 | 79 | 168 | 0.0 | 3.0 | 0.00 | 0.02 | 0.00 | 85 | 1012.6 |
| 20260902121601 | 79 | 209 | 0.0 | 4.0 | 0.00 | 0.02 | 0.00 | 86 | 1012.1 |
| 20260902120059 | 80 | 182 | 0.0 | 5.0 | 0.00 | 0.02 | 0.00 | 88 | 1012.2 |
| 20260902114554 | 80 | 169 | 2.0 | 6.0 | 0.00 | 0.02 | 0.00 | 92 | 1012.3 |
| 20260902113052 | 80 | 230 | 1.0 | 6.0 | 0.00 | 0.02 | 0.00 | 92 | 1011.9 |
| 20260902111548 | 80 | 257 | 0.0 | 4.0 | 0.00 | 0.02 | 0.00 | 92 | 1011.8 |
| 20260902110046 | 80 | 259 | 0.0 | 4.0 | 0.00 | 0.02 | 0.00 | 92 | 1011.8 |
| 20260902104612 | 80 | 229 | 0.0 | 4.0 | 0.00 | 0.02 | 0.00 | 92 | 1011.9 |
| 20260902103044 | 80 | 260 | 0.0 | 3.0 | 0.00 | 0.02 | 0.00 | 91 | 1012.0 |
| 20260902101544 | 80 | 173 | 1.0 | 9.0 | 0.00 | 0.02 | 0.00 | 92 | 1011.8 |
| 20260902100105 | 80 | 171 | 1.0 | 5.0 | 0.00 | 0.02 | 0.00 | 91 | 1011.6 |
| 20260902094543 | 80 | 240 | 0.0 | 3.0 | 0.00 | 0.02 | 0.00 | 91 | 1011.6 |
| 20260902093042 | 80 | 175 | 1.0 | 5.0 | 0.00 | 0.02 | 0.00 | 91 | 1011.7 |
| 20260902091542 | 80 | 223 | 0.0 | 3.0 | 0.00 | 0.02 | 0.00 | 91 | 1011.5 |
| 20260902090043 | 80 | 187 | 0.0 | 3.0 | 0.00 | 0.02 | 0.00 | 91 | 1011.4 |
| 20260902084539 | 80 | 225 | 0.0 | 3.0 | 0.00 | 0.02 | 0.00 | 90 | 1011.5 |
| 20260902083041 | 80 | 226 | 0.0 | 4.0 | 0.00 | 0.02 | 0.00 | 90 | 1011.5 |
| 20260902081558 | 81 | 243 | 2.0 | 6.0 | 0.00 | 0.02 | 0.00 | 90 | 1011.5 |
| 20260902080046 | 81 | 219 | 0.0 | 7.0 | 0.00 | 0.02 | 0.00 | 90 | 1011.7 |
| 20260902074539 | 80 | 213 | 0.0 | 5.0 | 0.00 | 0.02 | 0.00 | 90 | 1011.7 |
| 20260902073036 | 81 | 182 | 1.0 | 4.0 | 0.00 | 0.02 | 0.00 | 90 | 1011.7 |
| 20260902071538 | 81 | 236 | 1.0 | 4.0 | 0.00 | 0.02 | 0.00 | 90 | 1011.8 |
| 20260902070037 | 81 | 213 | 0.0 | 5.0 | 0.00 | 0.02 | 0.00 | 90 | 1011.7 |
| 20260902064535 | 81 | 252 | 1.0 | 4.0 | 0.00 | 0.02 | 0.00 | 89 | 1011.7 |
| 20260902063040 | 81 | 192 | 2.0 | 9.0 | 0.00 | 0.02 | 0.00 | 89 | 1011.7 |
| 20260902061534 | 81 | 206 | 1.0 | 5.0 | 0.00 | 0.02 | 0.00 | 89 | 1011.7 |
| 20260902060036 | 81 | 202 | 1.0 | 5.0 | 0.00 | 0.02 | 0.00 | 89 | 1011.7 |
| 20260902054535 | 81 | 245 | 1.0 | 5.0 | 0.00 | 0.02 | 0.00 | 88 | 1011.5 |
| 20260902053031 | 81 | 231 | 0.0 | 5.0 | 0.00 | 0.02 | 0.00 | 88 | 1011.7 |
| 20260902051528 | 81 | 267 | 0.0 | 4.0 | 0.00 | 0.02 | 0.00 | 87 | 1011.8 |
| 20260902050026 | 81 | 243 | 0.0 | 6.0 | 0.00 | 0.02 | 0.00 | 87 | 1011.8 |
| 20260902044538 | 81 | 192 | 1.0 | 5.0 | 0.00 | 0.02 | 0.02 | 87 | 1011.8 |
| 20260902043025 | 81 | 209 | 0.0 | 3.0 | 0.00 | 0.02 | 0.02 | 86 | 1011.8 |
| 20260902041526 | 81 | 241 | 0.0 | 3.0 | 0.00 | 0.02 | 0.02 | 87 | 1011.8 |
| 20260902040025 | 80 | 228 | 0.0 | 2.0 | 0.00 | 0.02 | 0.02 | 87 | 1011.9 |
| 20260902034524 | 80 | 250 | 0.0 | 3.0 | 0.00 | 0.02 | 0.02 | 87 | 1011.9 |
| 20260902033023 | 80 | 252 | 0.0 | 3.0 | 0.00 | 0.02 | 0.02 | 87 | 1011.9 |
| 20260902031535 | 80 | 258 | 0.0 | 1.0 | 0.00 | 0.02 | 0.02 | 86 | 1011.7 |
| 20260902030022 | 80 | 258 | 0.0 | 1.0 | 0.00 | 0.02 | 0.02 | 86 | 1011.4 |
| 20260902024522 | 80 | 216 | 0.0 | 2.0 | 0.00 | 0.02 | 0.02 | 86 | 1011.2 |
| 20260902023022 | 80 | 265 | 0.0 | 2.0 | 0.00 | 0.02 | 0.02 | 86 | 1011.1 |
| 20260902021530 | 80 | 239 | 0.0 | 3.0 | 0.00 | 0.02 | 0.02 | 86 | 1010.8 |
| 20260902020020 | 81 | 258 | 0.0 | 3.0 | 0.00 | 0.02 | 0.02 | 85 | 1010.8 |
| 20260902014541 | 81 | 267 | 0.0 | 5.0 | 0.00 | 0.02 | 0.02 | 85 | 1010.6 |
| 20260902013018 | 81 | 244 | 1.0 | 3.0 | 0.00 | 0.02 | 0.02 | 85 | 1010.4 |
| 20260902011518 | 81 | 236 | 0.0 | 3.0 | 0.00 | 0.02 | 0.02 | 84 | 1010.2 |
| 20260902010020 | 82 | 246 | 0.0 | 4.0 | 0.00 | 0.02 | 0.02 | 83 | 1010.1 |
| 20260902004521 | 82 | 247 | 3.0 | 6.0 | 0.00 | 0.02 | 0.02 | 82 | 1010.3 |
| 20260902003015 | 82 | 278 | 2.0 | 6.0 | 0.00 | 0.02 | 0.02 | 82 | 1010.5 |
| 20260902001514 | 83 | 332 | 1.0 | 7.0 | 0.00 | 0.02 | 0.02 | 81 | 1010.6 |
| 20260902000018 | 83 | 325 | 3.0 | 8.0 | 0.00 | 0.02 | 0.02 | 81 | 1010.6 |
| 20260901234533 | 83 | 323 | 1.0 | 6.0 | 0.00 | 0.02 | 0.02 | 82 | 1010.5 |
| 20260901233013 | 83 | 322 | 2.0 | 9.0 | 0.00 | 0.02 | 0.02 | 82 | 1010.5 |
| 20260901231512 | 83 | 345 | 3.0 | 7.0 | 0.00 | 0.02 | 0.02 | 82 | 1010.6 |
| 20260901230014 | 83 | 315 | 2.0 | 7.0 | 0.00 | 0.02 | 0.02 | 84 | 1010.7 |